����������;��������(kWh)
2018-10-15 00:00;76,75
2018-10-15 00:15;74,65
2018-10-15 00:30;74,85
2018-10-15 00:45;73,4
2018-10-15 01:00;75,2
2018-10-15 01:15;74,75
2018-10-15 01:30;73,55
2018-10-15 01:45;75,75
2018-10-15 02:00;79,95
2018-10-15 02:15;80,6
2018-10-15 02:30;79,85
2018-10-15 02:45;81,9
2018-10-15 03:00;82,7
2018-10-15 03:15;80,4
2018-10-15 03:30;81,25
2018-10-15 03:45;76,3
2018-10-15 04:00;73,4
2018-10-15 04:15;74,25
2018-10-15 04:30;75,5
2018-10-15 04:45;76
2018-10-15 05:00;77,65
2018-10-15 05:15;76,1
2018-10-15 05:30;76,5
2018-10-15 05:45;76,3
2018-10-15 06:00;74,7
2018-10-15 06:15;71,4
2018-10-15 06:30;72,4
2018-10-15 06:45;74,9
2018-10-15 07:00;74,4
2018-10-15 07:15;76,2
2018-10-15 07:30;125,4
2018-10-15 07:45;94,9
2018-10-15 08:00;86,15
2018-10-15 08:15;101,35
2018-10-15 08:30;94,9
2018-10-15 08:45;105
2018-10-15 09:00;111,8
2018-10-15 09:15;112,35
2018-10-15 09:30;118,8
2018-10-15 09:45;123,9
2018-10-15 10:00;126,45
2018-10-15 10:15;128,15
2018-10-15 10:30;134,3
2018-10-15 10:45;134,35
2018-10-15 11:00;135,6
2018-10-15 11:15;140,25
2018-10-15 11:30;145,65
2018-10-15 11:45;150,5
2018-10-15 12:00;149,8
2018-10-15 12:15;155,85
2018-10-15 12:30;157
2018-10-15 12:45;161,85
2018-10-15 13:00;165,1
2018-10-15 13:15;166,65
2018-10-15 13:30;163,2
2018-10-15 13:45;153,65
2018-10-15 14:00;157,55
2018-10-15 14:15;151,3
2018-10-15 14:30;156,25
2018-10-15 14:45;149,35
2018-10-15 15:00;144,85
2018-10-15 15:15;138,7
2018-10-15 15:30;137,6
2018-10-15 15:45;138,15
2018-10-15 16:00;134,85
2018-10-15 16:15;125,65
2018-10-15 16:30;124,25
2018-10-15 16:45;127,35
2018-10-15 17:00;122,2
2018-10-15 17:15;120,1
2018-10-15 17:30;116,7
2018-10-15 17:45;115,6
2018-10-15 18:00;118,65
2018-10-15 18:15;111
2018-10-15 18:30;110,2
2018-10-15 18:45;115,8
2018-10-15 19:00;114
2018-10-15 19:15;111,85
2018-10-15 19:30;108,1
2018-10-15 19:45;110,15
2018-10-15 20:00;105,95
2018-10-15 20:15;105,4
2018-10-15 20:30;102
2018-10-15 20:45;98,85
2018-10-15 21:00;99,25
2018-10-15 21:15;97,55
2018-10-15 21:30;94,55
2018-10-15 21:45;91,15
2018-10-15 22:00;88,2
2018-10-15 22:15;87,1
2018-10-15 22:30;84,8
2018-10-15 22:45;85,4
2018-10-15 23:00;82,85
2018-10-15 23:15;87,65
2018-10-15 23:30;88,35
2018-10-15 23:45;85,6
2018-10-16 00:00;87,3
2018-10-16 00:15;89,65
2018-10-16 00:30;87,6
2018-10-16 00:45;87,2
2018-10-16 01:00;87,85
2018-10-16 01:15;86,05
2018-10-16 01:30;80,9
2018-10-16 01:45;80,7
2018-10-16 02:00;81,9
2018-10-16 02:15;81,25
2018-10-16 02:30;81,55
2018-10-16 02:45;80,2
2018-10-16 03:00;80,5
2018-10-16 03:15;79,65
2018-10-16 03:30;81,4
2018-10-16 03:45;82,2
2018-10-16 04:00;82,05
2018-10-16 04:15;81,6
2018-10-16 04:30;84,45
2018-10-16 04:45;82,4
2018-10-16 05:00;82,8
2018-10-16 05:15;82,8
2018-10-16 05:30;83,75
2018-10-16 05:45;85,1
2018-10-16 06:00;82,2
2018-10-16 06:15;80,35
2018-10-16 06:30;80,2
2018-10-16 06:45;81,7
2018-10-16 07:00;81,9
2018-10-16 07:15;82,25
2018-10-16 07:30;127,3
2018-10-16 07:45;91,6
2018-10-16 08:00;92,55
2018-10-16 08:15;100,65
2018-10-16 08:30;105,15
2018-10-16 08:45;106,65
2018-10-16 09:00;116,45
2018-10-16 09:15;118,35
2018-10-16 09:30;126,4
2018-10-16 09:45;136,45
2018-10-16 10:00;136
2018-10-16 10:15;139,65
2018-10-16 10:30;142,25
2018-10-16 10:45;149,2
2018-10-16 11:00;149,6
2018-10-16 11:15;152,05
2018-10-16 11:30;153,65
2018-10-16 11:45;153,05
2018-10-16 12:00;153,3
2018-10-16 12:15;161,5
2018-10-16 12:30;154,5
2018-10-16 12:45;159,45
2018-10-16 13:00;154,8
2018-10-16 13:15;160,35
2018-10-16 13:30;155,75
2018-10-16 13:45;160,35
2018-10-16 14:00;157,5
2018-10-16 14:15;149,35
2018-10-16 14:30;152,25
2018-10-16 14:45;153,4
2018-10-16 15:00;152,3
2018-10-16 15:15;144,6
2018-10-16 15:30;139,55
2018-10-16 15:45;139,3
2018-10-16 16:00;135,4
2018-10-16 16:15;133,75
2018-10-16 16:30;133,6
2018-10-16 16:45;128,8
2018-10-16 17:00;125,1
2018-10-16 17:15;119,4
2018-10-16 17:30;121,1
2018-10-16 17:45;118
2018-10-16 18:00;117,35
2018-10-16 18:15;111,9
2018-10-16 18:30;113,55
2018-10-16 18:45;115,35
2018-10-16 19:00;116,65
2018-10-16 19:15;117,5
2018-10-16 19:30;118,15
2018-10-16 19:45;119,85
2018-10-16 20:00;116,15
2018-10-16 20:15;107,3
2018-10-16 20:30;101,45
2018-10-16 20:45;99,85
2018-10-16 21:00;98,75
2018-10-16 21:15;97,15
2018-10-16 21:30;95
2018-10-16 21:45;94,35
2018-10-16 22:00;86,55
2018-10-16 22:15;85,2
2018-10-16 22:30;82,55
2018-10-16 22:45;83
2018-10-16 23:00;82,75
2018-10-16 23:15;81,9
2018-10-16 23:30;80,55
2018-10-16 23:45;81,35
2018-10-17 00:00;78,35
2018-10-17 00:15;79,4
2018-10-17 00:30;77,45
2018-10-17 00:45;77,7
2018-10-17 01:00;78
2018-10-17 01:15;80,95
2018-10-17 01:30;77,35
2018-10-17 01:45;77,95
2018-10-17 02:00;78,1
2018-10-17 02:15;77,4
2018-10-17 02:30;79
2018-10-17 02:45;79,8
2018-10-17 03:00;79,4
2018-10-17 03:15;80,95
2018-10-17 03:30;78,85
2018-10-17 03:45;80,15
2018-10-17 04:00;78,7
2018-10-17 04:15;79,35
2018-10-17 04:30;79,5
2018-10-17 04:45;81,4
2018-10-17 05:00;79,85
2018-10-17 05:15;80,3
2018-10-17 05:30;82,75
2018-10-17 05:45;83,45
2018-10-17 06:00;85,55
2018-10-17 06:15;83,95
2018-10-17 06:30;85,2
2018-10-17 06:45;83,1
2018-10-17 07:00;85,4
2018-10-17 07:15;88,55
2018-10-17 07:30;128,8
2018-10-17 07:45;89,65
2018-10-17 08:00;86,05
2018-10-17 08:15;91,35
2018-10-17 08:30;97,05
2018-10-17 08:45;103,95
2018-10-17 09:00;102,95
2018-10-17 09:15;110,7
2018-10-17 09:30;120,3
2018-10-17 09:45;117,85
2018-10-17 10:00;125,7
2018-10-17 10:15;130,8
2018-10-17 10:30;129,25
2018-10-17 10:45;134,35
2018-10-17 11:00;132,1
2018-10-17 11:15;135,5
2018-10-17 11:30;142,7
2018-10-17 11:45;150,05
2018-10-17 12:00;152,75
2018-10-17 12:15;148,7
2018-10-17 12:30;144,2
2018-10-17 12:45;143,65
2018-10-17 13:00;147,9
2018-10-17 13:15;150
2018-10-17 13:30;143,15
2018-10-17 13:45;145,95
2018-10-17 14:00;142,9
2018-10-17 14:15;138,2
2018-10-17 14:30;139,15
2018-10-17 14:45;132,75
2018-10-17 15:00;133,7
2018-10-17 15:15;129,85
2018-10-17 15:30;124,05
2018-10-17 15:45;129,95
2018-10-17 16:00;119,2
2018-10-17 16:15;123,55
2018-10-17 16:30;121,75
2018-10-17 16:45;115,25
2018-10-17 17:00;115,1
2018-10-17 17:15;113,8
2018-10-17 17:30;107,8
2018-10-17 17:45;111,7
2018-10-17 18:00;104,6
2018-10-17 18:15;111,2
2018-10-17 18:30;100,8
2018-10-17 18:45;109,45
2018-10-17 19:00;112,65
2018-10-17 19:15;110,5
2018-10-17 19:30;109
2018-10-17 19:45;112,55
2018-10-17 20:00;108,4
2018-10-17 20:15;104,85
2018-10-17 20:30;102,45
2018-10-17 20:45;103,4
2018-10-17 21:00;103
2018-10-17 21:15;100,35
2018-10-17 21:30;99,85
2018-10-17 21:45;90,4
2018-10-17 22:00;86,15
2018-10-17 22:15;83,5
2018-10-17 22:30;81,55
2018-10-17 22:45;80,8
2018-10-17 23:00;81,4
2018-10-17 23:15;82,25
2018-10-17 23:30;80,45
2018-10-17 23:45;82
2018-10-18 00:00;78,85
2018-10-18 00:15;79,4
2018-10-18 00:30;77,4
2018-10-18 00:45;79,1
2018-10-18 01:00;79,4
2018-10-18 01:15;78,6
2018-10-18 01:30;76,35
2018-10-18 01:45;76,9
2018-10-18 02:00;76,45
2018-10-18 02:15;77,05
2018-10-18 02:30;77,45
2018-10-18 02:45;76,95
2018-10-18 03:00;78,55
2018-10-18 03:15;76,9
2018-10-18 03:30;78,75
2018-10-18 03:45;77,85
2018-10-18 04:00;77,55
2018-10-18 04:15;77,3
2018-10-18 04:30;78,2
2018-10-18 04:45;79,85
2018-10-18 05:00;81,15
2018-10-18 05:15;80,15
2018-10-18 05:30;80,65
2018-10-18 05:45;79,4
2018-10-18 06:00;79,55
2018-10-18 06:15;76,2
2018-10-18 06:30;76,4
2018-10-18 06:45;78,7
2018-10-18 07:00;79,4
2018-10-18 07:15;79,7
2018-10-18 07:30;124,9
2018-10-18 07:45;94,95
2018-10-18 08:00;93,4
2018-10-18 08:15;103,2
2018-10-18 08:30;100,1
2018-10-18 08:45;114,95
2018-10-18 09:00;113,2
2018-10-18 09:15;120,3
2018-10-18 09:30;122,4
2018-10-18 09:45;116,15
2018-10-18 10:00;129,5
2018-10-18 10:15;129,15
2018-10-18 10:30;131,75
2018-10-18 10:45;134,95
2018-10-18 11:00;133,1
2018-10-18 11:15;134,6
2018-10-18 11:30;137,9
2018-10-18 11:45;139,45
2018-10-18 12:00;142,25
2018-10-18 12:15;147,05
2018-10-18 12:30;144,75
2018-10-18 12:45;152,8
2018-10-18 13:00;147,1
2018-10-18 13:15;153,6
2018-10-18 13:30;147,6
2018-10-18 13:45;144,2
2018-10-18 14:00;144,7
2018-10-18 14:15;141,8
2018-10-18 14:30;142,2
2018-10-18 14:45;136,4
2018-10-18 15:00;133,15
2018-10-18 15:15;133,35
2018-10-18 15:30;135,15
2018-10-18 15:45;132,45
2018-10-18 16:00;132,4
2018-10-18 16:15;122,55
2018-10-18 16:30;120,9
2018-10-18 16:45;120,1
2018-10-18 17:00;115,75
2018-10-18 17:15;111,15
2018-10-18 17:30;112,05
2018-10-18 17:45;111,4
2018-10-18 18:00;109,4
2018-10-18 18:15;108,5
2018-10-18 18:30;105,5
2018-10-18 18:45;111,15
2018-10-18 19:00;114,75
2018-10-18 19:15;109,65
2018-10-18 19:30;114,25
2018-10-18 19:45;111,95
2018-10-18 20:00;106,1
2018-10-18 20:15;102,75
2018-10-18 20:30;100,35
2018-10-18 20:45;98,75
2018-10-18 21:00;104
2018-10-18 21:15;100,9
2018-10-18 21:30;99,8
2018-10-18 21:45;96,45
2018-10-18 22:00;94,8
2018-10-18 22:15;94,25
2018-10-18 22:30;91
2018-10-18 22:45;91,8
2018-10-18 23:00;90,05
2018-10-18 23:15;80,55
2018-10-18 23:30;80,8
2018-10-18 23:45;80,3
2018-10-19 00:00;77,95
2018-10-19 00:15;78,3
2018-10-19 00:30;78,35
2018-10-19 00:45;78,75
2018-10-19 01:00;77,75
2018-10-19 01:15;77,15
2018-10-19 01:30;76,4
2018-10-19 01:45;76,9
2018-10-19 02:00;77,95
2018-10-19 02:15;77,4
2018-10-19 02:30;78,05
2018-10-19 02:45;77,15
2018-10-19 03:00;76,65
2018-10-19 03:15;76,65
2018-10-19 03:30;79,9
2018-10-19 03:45;78
2018-10-19 04:00;77,4
2018-10-19 04:15;77,7
2018-10-19 04:30;77,55
2018-10-19 04:45;77,1
2018-10-19 05:00;77,55
2018-10-19 05:15;81,55
2018-10-19 05:30;80,45
2018-10-19 05:45;80,1
2018-10-19 06:00;78,3
2018-10-19 06:15;76,9
2018-10-19 06:30;76,3
2018-10-19 06:45;76,45
2018-10-19 07:00;79,55
2018-10-19 07:15;77,85
2018-10-19 07:30;78,65
2018-10-19 07:45;82,5
2018-10-19 08:00;87,8
2018-10-19 08:15;90,85
2018-10-19 08:30;91,75
2018-10-19 08:45;147,55
2018-10-19 09:00;122,25
2018-10-19 09:15;120
2018-10-19 09:30;117,3
2018-10-19 09:45;125,8
2018-10-19 10:00;129
2018-10-19 10:15;136,8
2018-10-19 10:30;138,5
2018-10-19 10:45;138,75
2018-10-19 11:00;137,25
2018-10-19 11:15;143,9
2018-10-19 11:30;141,6
2018-10-19 11:45;143,2
2018-10-19 12:00;137,4
2018-10-19 12:15;136,5
2018-10-19 12:30;141,1
2018-10-19 12:45;135,1
2018-10-19 13:00;131,8
2018-10-19 13:15;133,55
2018-10-19 13:30;133,8
2018-10-19 13:45;131,15
2018-10-19 14:00;130,9
2018-10-19 14:15;129,15
2018-10-19 14:30;130,2
2018-10-19 14:45;125,65
2018-10-19 15:00;129,3
2018-10-19 15:15;126,95
2018-10-19 15:30;126,75
2018-10-19 15:45;122,65
2018-10-19 16:00;120,85
2018-10-19 16:15;115,3
2018-10-19 16:30;113,4
2018-10-19 16:45;113,8
2018-10-19 17:00;108
2018-10-19 17:15;110,25
2018-10-19 17:30;110,25
2018-10-19 17:45;108,15
2018-10-19 18:00;105,15
2018-10-19 18:15;103,9
2018-10-19 18:30;103
2018-10-19 18:45;106,9
2018-10-19 19:00;109,3
2018-10-19 19:15;109,2
2018-10-19 19:30;110,3
2018-10-19 19:45;110,35
2018-10-19 20:00;108,55
2018-10-19 20:15;102,8
2018-10-19 20:30;106,55
2018-10-19 20:45;108,05
2018-10-19 21:00;109,3
2018-10-19 21:15;106,1
2018-10-19 21:30;104,1
2018-10-19 21:45;101,55
2018-10-19 22:00;98,9
2018-10-19 22:15;95,3
2018-10-19 22:30;87,65
2018-10-19 22:45;84,7
2018-10-19 23:00;84,8
2018-10-19 23:15;83,15
2018-10-19 23:30;84,35
2018-10-19 23:45;84,45
2018-10-20 00:00;81,95
2018-10-20 00:15;83,4
2018-10-20 00:30;82,05
2018-10-20 00:45;81,2
2018-10-20 01:00;80,9
2018-10-20 01:15;80,7
2018-10-20 01:30;80,95
2018-10-20 01:45;81,6
2018-10-20 02:00;81,8
2018-10-20 02:15;82,4
2018-10-20 02:30;82,5
2018-10-20 02:45;82,75
2018-10-20 03:00;81,35
2018-10-20 03:15;81,9
2018-10-20 03:30;80,85
2018-10-20 03:45;82,2
2018-10-20 04:00;81,65
2018-10-20 04:15;80,8
2018-10-20 04:30;81,7
2018-10-20 04:45;79,2
2018-10-20 05:00;81,05
2018-10-20 05:15;79,9
2018-10-20 05:30;79,35
2018-10-20 05:45;80,05
2018-10-20 06:00;79,1
2018-10-20 06:15;76,4
2018-10-20 06:30;76,8
2018-10-20 06:45;76,85
2018-10-20 07:00;74,95
2018-10-20 07:15;75,35
2018-10-20 07:30;74,1
2018-10-20 07:45;72,8
2018-10-20 08:00;72,95
2018-10-20 08:15;69,35
2018-10-20 08:30;69,9
2018-10-20 08:45;71,2
2018-10-20 09:00;70,05
2018-10-20 09:15;72,75
2018-10-20 09:30;69,95
2018-10-20 09:45;70,75
2018-10-20 10:00;70,9
2018-10-20 10:15;82,9
2018-10-20 10:30;82,25
2018-10-20 10:45;81,4
2018-10-20 11:00;79,05
2018-10-20 11:15;79,5
2018-10-20 11:30;80,6
2018-10-20 11:45;81,1
2018-10-20 12:00;81,9
2018-10-20 12:15;86,45
2018-10-20 12:30;84,75
2018-10-20 12:45;80,5
2018-10-20 13:00;80,9
2018-10-20 13:15;77,1
2018-10-20 13:30;82,4
2018-10-20 13:45;78,35
2018-10-20 14:00;76,6
2018-10-20 14:15;76,8
2018-10-20 14:30;76,55
2018-10-20 14:45;76,8
2018-10-20 15:00;76,65
2018-10-20 15:15;76,8
2018-10-20 15:30;76,6
2018-10-20 15:45;75,6
2018-10-20 16:00;76,6
2018-10-20 16:15;75,2
2018-10-20 16:30;74,95
2018-10-20 16:45;74,25
2018-10-20 17:00;77,9
2018-10-20 17:15;73,25
2018-10-20 17:30;78,05
2018-10-20 17:45;81,1
2018-10-20 18:00;77,55
2018-10-20 18:15;78,4
2018-10-20 18:30;80,05
2018-10-20 18:45;83,4
2018-10-20 19:00;85,15
2018-10-20 19:15;87,2
2018-10-20 19:30;90,2
2018-10-20 19:45;90,8
2018-10-20 20:00;91,2
2018-10-20 20:15;92,3
2018-10-20 20:30;95,8
2018-10-20 20:45;95,1
2018-10-20 21:00;95,3
2018-10-20 21:15;96,25
2018-10-20 21:30;96,65
2018-10-20 21:45;93,85
2018-10-20 22:00;92
2018-10-20 22:15;89,95
2018-10-20 22:30;81,9
2018-10-20 22:45;81,2
2018-10-20 23:00;80,35
2018-10-20 23:15;80,35
2018-10-20 23:30;78,25
2018-10-20 23:45;80,25
2018-10-21 00:00;80,4
2018-10-21 00:15;79,9
2018-10-21 00:30;79,15
2018-10-21 00:45;79,35
2018-10-21 01:00;78,4
2018-10-21 01:15;77,7
2018-10-21 01:30;78,25
2018-10-21 01:45;79,55
2018-10-21 02:00;79,2
2018-10-21 02:15;77,9
2018-10-21 02:30;79,05
2018-10-21 02:45;77,25
2018-10-21 03:00;77,75
2018-10-21 03:15;78
2018-10-21 03:30;79,1
2018-10-21 03:45;80,05
2018-10-21 04:00;78,1
2018-10-21 04:15;78,8
2018-10-21 04:30;79,65
2018-10-21 04:45;78,9
2018-10-21 05:00;79,1
2018-10-21 05:15;79,8
2018-10-21 05:30;79,85
2018-10-21 05:45;80,25
2018-10-21 06:00;77,95
2018-10-21 06:15;76
2018-10-21 06:30;76,7
2018-10-21 06:45;76,15
2018-10-21 07:00;75,65
2018-10-21 07:15;75
2018-10-21 07:30;72,95
2018-10-21 07:45;71,8
2018-10-21 08:00;72,55
2018-10-21 08:15;72,6
2018-10-21 08:30;70,7
2018-10-21 08:45;70,95
2018-10-21 09:00;74,2
2018-10-21 09:15;72,45
2018-10-21 09:30;73
2018-10-21 09:45;71,7
2018-10-21 10:00;71,65
2018-10-21 10:15;73,15
2018-10-21 10:30;73,5
2018-10-21 10:45;74
2018-10-21 11:00;71,95
2018-10-21 11:15;78,1
2018-10-21 11:30;76,6
2018-10-21 11:45;76,15
2018-10-21 12:00;81,6
2018-10-21 12:15;81,65
2018-10-21 12:30;82,65
2018-10-21 12:45;83,25
2018-10-21 13:00;85,6
2018-10-21 13:15;86,55
2018-10-21 13:30;77,95
2018-10-21 13:45;77,45
2018-10-21 14:00;78,55
2018-10-21 14:15;78,25
2018-10-21 14:30;78,4
2018-10-21 14:45;77,95
2018-10-21 15:00;79,85
2018-10-21 15:15;77,1
2018-10-21 15:30;76,6
2018-10-21 15:45;78,5
2018-10-21 16:00;75,6
2018-10-21 16:15;78,15
2018-10-21 16:30;75,95
2018-10-21 16:45;76,55
2018-10-21 17:00;75,75
2018-10-21 17:15;78,25
2018-10-21 17:30;79,45
2018-10-21 17:45;80,8
2018-10-21 18:00;79,55
2018-10-21 18:15;80,15
2018-10-21 18:30;81,6
2018-10-21 18:45;86,2
2018-10-21 19:00;90,25
2018-10-21 19:15;91,15
2018-10-21 19:30;90,2
2018-10-21 19:45;93,65
2018-10-21 20:00;91,05
2018-10-21 20:15;95,3
2018-10-21 20:30;96,9
2018-10-21 20:45;97,45
2018-10-21 21:00;97,05
2018-10-21 21:15;96,1
2018-10-21 21:30;98,55
2018-10-21 21:45;96,25
2018-10-21 22:00;93,85
2018-10-21 22:15;90,35
2018-10-21 22:30;85,1
2018-10-21 22:45;81,75
2018-10-21 23:00;83,05
2018-10-21 23:15;81,85
2018-10-21 23:30;79,7
2018-10-21 23:45;80,75

